Location: Chavannaz
(46.0503°N, 6.0148°E)
Time: 13:48:29
(UTC+00:00)

Daily predictions for brighter satellites

Satellite Brightness Start Highest point End
(mag) Time Altitude Azimuth Time Altitude Azimuth Time Altitude Azimuth
Cosmos 1697 Rocket 3.2 19:56:38 10° NNW 20:02:05 49° ENE 20:07:30 10° SE
Cosmos 1980 Rocket 3.5 19:57:32 10° N 20:02:27 29° NE 20:07:18 10° ESE
Resurs 01 Rocket 1.9 20:12:15 10° S 20:16:41 70° W 20:21:09 10° NNW
COSMOS 2406 3.8 20:14:34 10° S 20:19:50 38° ESE 20:25:07 10° NE
Cosmos 2184 Rocket 4.1 20:18:09 10° N 20:24:20 69° E 20:30:32 10° SSE
Cosmos 1833 Rocket 2.7 20:19:48 10° SSW 20:25:21 71° ESE 20:30:58 10° NNE
H-2A R/B 2.7 20:22:06 10° N 20:26:31 62° WNW 20:30:57 10° SSW
Cosmos 1867 4.4 20:24:16 10° NNW 20:29:30 43° NE 20:34:38 10° ESE
Cosmos 1536 Rocket 3.6 20:26:55 10° S 20:31:15 86° W 20:35:38 10° N
Cosmos 1703 3.1 20:28:34 10° S 20:32:23 77° E 20:36:16 10° NNE
CARTOSAT-1 3.6 20:29:37 10° SSE 20:33:56 88° ENE 20:38:16 10° NNW
Cosmos 1741 Rocket 4.2 20:29:13 10° NNW 20:34:32 73° WSW 20:39:50 10° SSE
USA 245 3.0 20:32:00 10° SSE 20:35:49 69° ENE 20:38:59 10° N
Cosmos 1606 Rocket 4.1 20:32:06 10° N 20:36:16 44° ENE 20:39:50 14° SSE
Ariane Rocket 3.4 20:32:56 10° S 20:37:59 66° WSW 20:43:05 10° NNW
Cosmos 2322 Rocket 4.4 20:35:29 10° N 20:38:30 14° NE 20:41:31 10° ENE
CZ-4B R/B 2.5 20:43:24 10° N 20:46:08 39° WNW 20:48:51 10° SW
ARIANE 5 R/B 3.7 20:44:14 14° SE 20:47:28 32° ENE 20:51:24 10° N
Terra 2.4 20:44:04 14° SE 20:47:51 45° ENE 20:52:23 10° N
ATLAS 2AS CENTAUR R/B 4.3 20:44:02 10° WNW 20:49:31 25° WSW 20:54:45 10° SSW
SPOT 3 Rocket 3.7 20:44:23 10° SSE 20:49:35 80° WSW 20:54:50 10° NNW
SPOT 5 2.6 20:46:56 14° SSE 20:50:34 68° ENE 20:54:53 10° N
RESURS DK-1 3.7 20:49:20 10° NW 20:53:05 34° WSW 20:56:49 10° S
USA 276 3.2 20:50:36 10° WNW 20:53:30 40° N 20:56:23 10° E
FALCON 9 DEB 4.1 20:51:54 10° NW 20:55:00 39° NNE 20:58:00 11° E
Cosmos 1726 Rocket 3.7 20:53:56 10° N 20:58:12 57° ENE 21:01:15 18° SSE
Cosmos 1331 Rocket 4.4 20:57:11 10° SSW 21:02:28 69° WNW 21:07:45 10° NNE
Cosmos 2082 Rocket 2.3 20:57:56 10° S 21:03:32 60° ESE 21:09:09 10° NNE
Cosmos 2327 Rocket 4.5 20:58:13 10° N 21:04:33 82° E 21:09:48 15° S
Cosmos 2074 Rocket 4.5 20:58:26 10° NNW 21:04:35 59° W 21:10:40 10° S
Helios 1A Rocket 2.9 21:04:55 18° SSE 21:07:55 87° WSW 21:12:04 10° NNW
Spot 2 Rocket 3.6 21:04:02 15° SSE 21:08:18 82° WSW 21:13:28 10° NNW
Cosmos 1328 3.7 21:05:03 12° S 21:08:41 84° E 21:12:41 10° N
ASTEX 1 4.4 21:04:35 10° NNE 21:09:03 32° E 21:11:40 20° SE
Cosmos 2084 Rocket 3.7 21:07:37 10° NW 21:11:27 54° SW 21:13:53 22° SSE
Cosmos 2360 Rocket 4.4 21:09:41 10° N 21:13:13 16° NE 21:16:44 10° E
Nadezhda 1 Rocket 4.0 21:07:55 10° S 21:13:59 80° W 21:20:06 10° N
Cosmos 2181 Rocket 4.5 21:17:08 20° SSE 21:21:03 43° E 21:26:54 10° NNE
X-37B 2.1 21:23:33 10° WSW 21:25:27 19° SSW 21:25:27 19° SSW
ERS-1 Rocket 3.2 21:22:07 17° S 21:25:55 65° WSW 21:30:57 10° NNW
Cosmos 1892 2.7 21:26:27 28° SSE 21:28:11 57° E 21:31:55 10° NNE
Cosmos 1302 Rocket 4.2 21:29:22 10° SSW 21:34:32 73° WNW 21:39:45 10° NNE
Cosmos 1892 Rocket 3.8 21:38:01 16° SSW 21:41:26 66° W 21:45:48 10° N
ASTRO F (AKARI) 4.5 21:40:19 35° S 21:41:41 81° WSW 21:45:11 10° NNW
Cosmos 968 Rocket 3.9 21:38:16 10° NNW 21:43:22 57° WSW 21:46:30 23° S
Cosmos 1697 Rocket 4.2 21:41:04 10° NW 21:45:47 28° WSW 21:49:50 13° SSW
Cosmos 1980 Rocket 2.6 21:41:13 10° NW 21:46:46 54° WSW 21:50:07 23° S
SL-16 R/B 2.8 21:44:08 10° NNW 21:49:38 48° ENE 21:52:57 23° ESE
Cosmos 1408 2.9 21:48:44 25° SSW 21:50:30 57° W 21:53:55 10° N
Cosmos 2058 Rocket 3.3 21:46:39 10° NNW 21:51:04 68° W 21:53:20 28° S
Cosmos 1626 Rocket 3.7 21:50:06 34° SSE 21:51:40 53° E 21:55:55 10° NNE
ATLAS 5 CENTAUR R/B 1.1 21:50:51 16° SW 21:53:45 88° ESE 21:57:54 10° NE
SL-8 Rocket 4.0 21:48:03 10° N 21:54:18 87° W 21:58:01 26° S
USA 267 3.6 21:48:47 10° ENE 21:54:56 42° SE 21:59:30 18° SSW
SJ 16-02 2.4 21:57:41 10° N 22:01:46 35° ENE 22:03:35 25° ESE
In-Cosmos 22 Rocket 4.1 21:59:05 23° S 22:02:36 88° W 22:08:03 10° N
SL-4 R/B 3.4 22:04:44 19° E 22:04:44 19° E 22:06:04 10° ENE
CSL-04 DEB 4.5 21:59:35 10° NNE 22:03:58 81° ESE 22:05:49 34° S
Cosmos 1825 2.1 22:08:00 42° SSW 22:09:10 82° W 22:12:56 10° N
Cosmos 1867 4.5 22:08:04 10° NW 22:13:02 36° WSW 22:15:18 26° SSW
Cosmos 2366 rocket 4.1 22:08:20 10° NNW 22:14:41 75° W 22:18:15 28° S
Cosmos 1869 3.4 22:13:27 10° NNW 22:17:21 68° W 22:18:25 44° SSW
Cosmos 2218 Rocket 4.2 22:14:46 10° NNW 22:21:08 67° W 22:24:42 27° SSW
Cosmos 2322 Rocket 2.4 22:18:05 10° NNW 22:23:45 63° ENE 22:26:28 31° SE
ARIANE 5 R/B 4.1 22:21:46 19° SW 22:23:55 28° W 22:27:44 10° NW
GP-B 3.9 22:20:02 10° N 22:24:17 46° W 22:26:27 25° SW
Meteor 1-27 4.5 22:19:19 10° NNW 22:24:46 60° W 22:27:27 30° SSW
Terra 3.7 22:22:57 14° SW 22:25:48 22° W 22:29:31 10° NW
SAR-Lupe-4 4.3 22:24:53 10° N 22:28:22 49° WNW 22:29:35 33° SW
USA 276 2.6 22:26:21 10° WNW 22:28:42 48° W 22:28:42 48° W
USA 234 3.9 22:23:06 10° ESE 22:29:27 56° NNE 22:35:50 10° NW
FALCON 9 DEB 4.1 22:28:12 10° WNW 22:30:31 32° WSW 22:30:31 32° WSW
BREEZE-M DEB (TANK) 3.9 22:33:36 10° WNW 22:36:51 72° NNE 22:49:19 10° ESE
Cosmos 1633 2.5 22:39:01 61° SW 22:39:24 68° W 22:42:51 10° N
Cosmos 1758 Rocket 3.5 22:42:24 49° SSW 22:43:34 86° W 22:48:00 10° N
Cosmos 2333 Rocket 3.3 22:39:10 10° NNW 22:44:35 39° NE 22:48:05 20° ESE
Cosmos 2082 Rocket 4.2 22:43:16 10° WSW 22:48:02 27° NW 22:52:48 10° N
Cosmos 1606 2.5 22:50:04 10° N 22:53:57 88° W 22:54:21 71° S
Cosmos-2242 3.1 22:50:07 10° NNW 22:54:20 65° W 22:55:10 51° SSW
Cosmos 1812 Rocket 4.1 22:50:43 10° NNW 22:55:03 51° W 22:56:09 40° SW
ADEOS Rocket 3.5 22:53:13 32° SSE 22:57:05 82° ENE 23:04:53 10° NNW
ISS -1.2 23:00:48 13° ENE 23:00:48 13° ENE 23:01:18 10° ENE
Cosmos 2360 Rocket 2.2 22:52:32 10° NNW 22:58:15 75° ENE 23:00:31 38° SE
Cosmos 1340 Rocket 3.0 22:58:42 51° ESE 22:58:54 52° E 23:02:46 10° NNE
Gbstr 26 Del rocket 2.9 22:59:00 46° SW 23:00:12 75° SSE 23:05:11 10° ENE
Cosmos 375 4.4 23:05:37 61° S 23:06:11 72° SE 23:11:02 10° NE
Cosmos 1821 Rocket 4.3 23:02:43 10° NNW 23:08:49 59° W 23:11:22 34° SSW
BREEZE-M DEB (TANK) 3.8 23:12:24 31° E 23:12:24 31° E 23:15:24 10° ENE
SL-27 R/B 3.9 23:13:18 25° ENE 23:13:18 25° ENE 23:15:18 10° NE
NOSS 3-2 (A) 4.4 23:13:40 24° ESE 23:14:09 25° ESE 23:18:54 10° ENE
Cosmos 44 3.0 23:14:09 58° S 23:14:54 72° ESE 23:19:23 10° NE
Meteor 2-11 Rocket 4.5 23:08:52 10° N 23:15:00 71° E 23:17:23 38° SSE
Cosmos 1833 4.1 23:14:26 44° S 23:16:10 71° ESE 23:21:45 10° NNE
Cosmos 972 Rocket 4.1 23:11:22 10° NNW 23:16:39 81° ENE 23:18:42 41° SSE
Cosmos 1782 4.4 23:18:06 10° NNE 23:21:25 25° ENE 23:22:20 22° E
ALOS 2 2.8 23:21:37 50° SW 23:22:19 56° W 23:26:40 10° NNW
ERS-2 2.2 23:19:33 10° NNE 23:22:56 59° E 23:22:56 59° E
CENTAUR R/B 3.4 23:22:31 27° SE 23:23:30 29° ESE 23:29:03 10° NE
Cosmos 1605 Rocket 4.3 23:19:18 10° N 23:25:42 64° ENE 23:28:27 35° SSE
Cosmos 2297 Rocket 4.4 23:29:19 10° ESE 23:30:45 11° E 23:32:21 10° ENE
Cosmos 2058 3.5 23:29:58 42° WSW 23:30:49 49° WNW 23:34:54 10° N
COSMOS 2428 3.6 23:25:34 10° NNW 23:31:03 44° NE 23:34:37 20° ESE
Nadezhda 3 Rocket 4.5 23:28:02 28° SW 23:31:04 51° WNW 23:37:05 10° N
Cosmos 2151 4.2 23:31:03 29° ESE 23:31:37 30° E 23:35:23 10° NNE
H-2A R/B 4.1 23:27:40 10° N 23:31:44 49° WNW 23:32:48 39° WSW
SL-16 R/B 3.3 23:28:41 10° NW 23:33:29 29° WSW 23:34:48 26° SW
Cosmos 1953 Rocket 3.6 23:33:03 54° SW 23:33:55 70° W 23:38:20 10° N
Cosmos 2219 Rocket 2.5 23:28:22 10° NNW 23:34:01 64° ENE 23:36:41 32° SE
USA 267 3.5 23:31:40 10° NE 23:38:10 69° NNW 23:44:40 10° WSW
ATLAS 5 CENTAUR R/B 4.2 23:36:18 10° WNW 23:38:58 17° NNW 23:41:55 10° NNE
SJ 16-02 2.7 23:36:31 10° NW 23:40:09 25° W 23:40:31 25° WSW
SL-4 R/B 2.5 23:40:05 22° W 23:42:06 49° NNW 23:45:43 10° ENE
Cosmos 2322 3.9 23:37:30 10° NNW 23:43:12 69° ENE 23:45:45 33° SE
Cosmos 1898 Rocket 4.2 23:39:30 10° NNW 23:44:31 47° ENE 23:47:02 27° ESE
COSMOS 2455 4.4 23:46:12 10° NNW 23:51:36 33° NE 23:56:57 10° ESE
Cosmos 2221 2.6 23:47:18 10° NNW 23:51:38 65° W 23:52:14 57° SW
PSLV R/B 3.7 23:49:45 10° NNE 23:54:31 86° WNW 23:55:36 54° SSW
